SL-12 DEB, 41677

Orbit data source: Space-Track

SL-12 DEB, 41677 is space debris in HEO originally from a launch on Fri, 26 Oct 2007 UTC launched from the Tyuratam Missile And Space Complex (TTMTR). Debris objects in space refer to the collection of defunct objects orbiting the Earth. Examples of debris include non-operational satellites, rocket bodies, and fragments generated from explosions, collisions, or faulty payload assembly.

Loading next visibility...
Identifier
41677, 2007-052J
Orbit
HEO
Country
Flag of CISCIS
Related business
Manufacturer
RKKE
Mission
Spacecraft
Bus & Motor
Unknown
Mass
Unknown
Launch date (UTC)
2007-10-26 (19 years ago)
Launch vehicle
Unknown
Launch site
Tyuratam Missile And Space Complex (TTMTR)
Object type
Payload
Rocket body
Debris
Shape & HBR
Unknown shape, 0.7 m
Radar Cross Section
Medium (>0.1 m² and <1 m²)

Expand to show TLE details & history
Last TLE update: 2 days ago

TLE from 2 days ago
0 SL-12 DEB
1 41677U 07052J   26263.29080505  .00000130  00000-0  44310-3 0  9996
2 41677  64.9202 165.5110 5634947 222.0881  77.2843  4.38903386191882
Epoch: 2026-09-20T06:58Z
TLE epoch observation values (Epoch: 2026-09-20T06:58:45.556Z)
Latitude
-0.00004°
Longitude
61.64873°
Altitude
12,119.86 km
Speed
4.22 km/s
True Right ascension
11h 02m 06s
True Declination
0° 00' 00"
Sunlit
Object was in daylight at epoch
Visualization orbit readout
Latitude
Unknown
Longitude
Unknown
Altitude
Unknown
Speed
Unknown
Apparent Right ascension
Unknown
Apparent Declination
Unknown
Sunlit
N/A
Visualization observer readout
Local Sidereal Time
21:06:45
Azimuth
Unknown
Elevation
Unknown
Doppler factor
Unknown
Orbital elements
Apogee altitude
18,256.968 km
Perigee altitude
499.631 km
Semi-major axis
15,756.436 km
Eccentricity
0.56349
Inclination
64.9202°
RAAN
165.511°
Arg. of periapsis
222.0881°
True anomaly
137.99133°
Mean anomaly
77.2843°
Eccentric anomaly
107.99147°
Mean motion
1.09738 °/min
Orbital period
328.05 mins
BSTAR
0.0004431
Loading maneuver chart data...
Computing Atmospheric mass density...
Loading historical data...
Loading historical data...
Loading historical data...
Loading historical data...
Loading historical data...
Loading historical data...
Loading historical data...

Documentation

Showing up to 5 results
|